Regional Weather Roundup
Issued by NWS Northern Indiana

Home | Current Version | Previous Version | Graphics & Text | Print | Product List | Glossary On
Versions: 1 2 3 4 5 6 7 8 9 10 11 12 13 14 15 16 17 18 19 20 21 22 23 24 25 26 27 28 29 30 31 32 33 34 35 36 37 38 39 40 41 42 43 44 45 46 47 48 49 50
054
ASUS43 KIWX 250510
RWRIWX

KIWX WEATHER ROUNDUP
NATIONAL WEATHER SERVICE NORTHERN INDIANA
1200 AM EST SAT FEB 25 2017

NOTE: "FAIR" INDICATES FEW OR NO CLOUDS BELOW 12,000 FEET WITH NO
SIGNIFICANT WEATHER AND/OR OBSTRUCTIONS TO VISIBILITY.

* THESE STATIONS ARE NOT UNDER NWS QUALITY CONTROL. THEY ALSO MAY NOT
  REPORT WEATHER SUCH AS PRECIPITATION OR FOG.

INZ001>027-250600-
NORTHERN INDIANA

CITY           SKY/WX    TMP DP  RH WIND       PRES   REMARKS
GARY*          CLOUDY    40  34  77 SW8       29.60R
VALPARAISO     MOCLDY    40  35  83 W17       29.60R
MICHIGAN CITY* MOCLDY    34  34 100 CALM      29.58F
LAPORTE*       PTCLDY    37  34  88 W7        29.58S
KNOX*          CLOUDY    41  21  45 W13       29.59S
SOUTH BEND     MOCLDY    36  35  96 W6        29.58S
GOSHEN         MOCLDY    40  36  86 W13       29.56F
MONTICELLO*    DRIZZLE   42  36  80 W10G20    29.62S
LOGANSPORT*    CLOUDY    41  36  81 W12       29.62S
ROCHESTER*     CLOUDY    43  36  75 W14G21    29.60F
WARSAW*        MOCLDY    39  34  81 W12       29.58F
ANGOLA*        CLOUDY    41  39  93 W9        29.55R
FORT WAYNE     MOCLDY    43  36  76 W20G26    29.59R
HUNTINGTON*    CLOUDY    42  36  79 W6        29.58F
PERU/GRISSOM   CLOUDY    42  40  89 W10       29.59F
MARION*        CLOUDY    42  36  81 W13       29.62F FOG

$$
INZ028>050-250600-
CENTRAL INDIANA

CITY           SKY/WX    TMP DP  RH WIND       PRES   REMARKS
LAFAYETTE      CLOUDY    42  37  82 W14G24    29.63S
KOKOMO*        CLOUDY    43  38  82 W12       29.61F
MUNCIE*        MOCLDY    45  38  76 W10G23    29.61R
INDIANAPOLIS   PTCLDY    43  34  70 W17G24    29.64F

$$
MIZ043>046-050>051-056>058-064>065-071>073-077>080-250600-
SOUTHWEST LOWER MICHIGAN

CITY           SKY/WX    TMP DP  RH WIND       PRES   REMARKS
BATTLE CREEK   CLOUDY    39  36  89 W16G24    29.52F
BENTON HARBOR  CLOUDY    36  33  89 NW6       29.57S
COLDWATER*     CLOUDY    41  38  89 W14       29.54R
HILLSDALE*     CLOUDY    41  37  87 W20G25    29.52R
HOLLAND        CLOUDY    34  33  96 W15       29.53S WCI  24
GRAND RAPIDS   CLOUDY    38  35  89 SW20G28   29.49S
KALAMAZOO      CLOUDY    39  34  82 W14G20    29.54F
STURGIS*       CLOUDY    39  36  89 W13G18    29.56R
THREE RIVERS*  CLOUDY    39  35  85 W9G18     29.56R

$$
OHZ001>008-015>018-024>025-250600-
NORTHWEST OHIO

CITY           SKY/WX    TMP DP  RH WIND       PRES   REMARKS
WAUSEON*       CLOUDY    46  43  87 W22G32    29.52R
DEFIANCE       CLOUDY    47  43  86 W10G25    29.55R
FINDLAY        CLOUDY    52  45  77 W21G26    29.53R
TOLEDO EXPRESS CLOUDY    50  48  93 W25G32    29.51R
TOLEDO METCALF CLOUDY    56  54  93 SW17      29.50R
LIMA           MOCLDY    50  46  86 W22G33    29.55S

$$
AND FOR LAKE MICHIGAN COASTAL AND OPEN LAKE BUOY OBSERVATIONS

STATION/POSITION TEMP    WIND        PRES    VSBY  WAVE
                 AIR SEA DIR/SP/G                  HT/PER
                 (F)     (DEG/KT/KT) (MB)    (MI)  (FT/S)
CALUMET HARBOR    37     240/  7/ 11 1001.8R
MICHIGAN CITY     35        CALM       N/A
BURNS HARBOR      38     270/  7/  8 1002.7R
SAINT JOSEPH      36     290/  7/ 10 1002.0

$$
&&




USA.gov is the U.S. government's official web portal to all federal, state and local government web resources and services.